| time (UTC) | temp F | wind direction | speed knots | gust knots | rain 1hr in | rain 24hr in | rain mn in | humidity % | barometer mb |
| 20260506191201 | 62 | 98 | 1.7 | 7.0 | 0.00 | 0.00 | 0.00 | 87 | 1011.8 |
| 20260506185146 | 62 | 63 | 1.7 | 7.0 | 0.00 | 0.00 | 0.00 | 85 | 1011.3 |
| 20260506184221 | 62 | 28 | 2.6 | 7.0 | 0.00 | 0.00 | 0.00 | 85 | 1010.9 |
| 20260506183144 | 63 | 5 | 1.7 | 7.8 | 0.00 | 0.00 | 0.00 | 85 | 1010.6 |
| 20260506182222 | 62 | 84 | 2.6 | 8.7 | 0.00 | 0.00 | 0.00 | 85 | 1010.8 |
| 20260506181145 | 63 | 50 | 1.7 | 5.2 | 0.00 | 0.00 | 0.00 | 85 | 1010.9 |
| 20260506180219 | 63 | 5 | 0.9 | 7.0 | 0.00 | 0.00 | 0.00 | 84 | 1012.2 |
| 20260506175242 | 62 | 15 | 1.7 | 3.5 | 0.00 | 0.00 | 0.00 | 85 | 1012.3 |
| 20260506173147 | 61 | 107 | 1.7 | 4.3 | 0.00 | 0.00 | 0.00 | 86 | 1011.7 |
| 20260506172133 | 60 | 145 | 1.7 | 3.5 | 0.00 | 0.00 | 0.00 | 88 | 1012.2 |
| 20260506171207 | 59 | 13 | 1.7 | 4.3 | 0.00 | 0.00 | 0.00 | 89 | 1012.8 |
| 20260506170905 | 59 | 167 | 1.7 | 4.3 | 0.00 | 0.00 | 0.00 | 88 | 1012.8 |
| 20260506170154 | 59 | 287 | 2.6 | 4.3 | 0.00 | 0.00 | 0.00 | 88 | 1013.4 |
| 20260506165221 | 59 | 58 | 1.7 | 4.3 | 0.00 | 0.00 | 0.00 | 89 | 1013.4 |
| 20260506164147 | 59 | 35 | 1.7 | 9.6 | 0.00 | 0.00 | 0.00 | 89 | 1014.3 |
| 20260506163216 | 59 | 50 | 1.7 | 7.8 | 0.00 | 0.00 | 0.00 | 88 | 1014.2 |
| 20260506162149 | 59 | 275 | 2.6 | 7.0 | 0.00 | 0.00 | 0.00 | 88 | 1014.1 |
| 20260506161213 | 59 | 17 | 1.7 | 5.2 | 0.00 | 0.00 | 0.00 | 88 | 1013.9 |
| 20260506160124 | 60 | 345 | 2.6 | 5.2 | 0.00 | 0.00 | 0.00 | 87 | 1013.3 |
| 20260506155153 | 60 | 24 | 2.6 | 7.0 | 0.00 | 0.00 | 0.00 | 87 | 1012.9 |
| 20260506154130 | 60 | 298 | 0.9 | 5.2 | 0.00 | 0.00 | 0.00 | 88 | 1012.7 |
| 20260506153152 | 60 | 57 | 1.7 | 4.3 | 0.00 | 0.00 | 0.00 | 88 | 1012.2 |
| 20260506152206 | 60 | 60 | 2.6 | 5.2 | 0.00 | 0.00 | 0.00 | 87 | 1012.2 |
| 20260506151238 | 61 | 325 | 1.7 | 4.3 | 0.00 | 0.00 | 0.00 | 88 | 1012.1 |
| 20260506150152 | 61 | 29 | 1.7 | 5.2 | 0.00 | 0.00 | 0.00 | 88 | 1012.1 |
| 20260506145222 | 60 | 43 | 0.9 | 4.3 | 0.00 | 0.00 | 0.00 | 88 | 1012.1 |
| 20260506144151 | 60 | 355 | 1.7 | 8.7 | 0.00 | 0.00 | 0.00 | 88 | 1011.8 |
| 20260506143159 | 60 | 309 | 0.9 | 4.3 | 0.00 | 0.00 | 0.00 | 89 | 1011.6 |
| 20260506142234 | 60 | 331 | 1.7 | 7.8 | 0.00 | 0.00 | 0.00 | 90 | 1011.4 |
| 20260506141135 | 60 | 52 | 0.9 | 5.2 | 0.00 | 0.00 | 0.00 | 89 | 1011.4 |
| 20260506140850 | 60 | 340 | 1.7 | 5.2 | 0.00 | 0.00 | 0.00 | 89 | 1011.6 |
| 20260506140216 | 60 | 65 | 2.6 | 7.8 | 0.00 | 0.00 | 0.00 | 89 | 1011.4 |
| 20260506135144 | 61 | 75 | 0.9 | 4.3 | 0.00 | 0.00 | 0.00 | 90 | 1011.0 |
| 20260506134220 | 62 | 273 | 0.9 | 4.3 | 0.00 | 0.00 | 0.00 | 91 | 1011.1 |
| 20260506133221 | 62 | 270 | 0.9 | 3.5 | 0.00 | 0.00 | 0.00 | 91 | 1011.0 |
| 20260506132200 | 62 | 12 | 1.7 | 7.8 | 0.00 | 0.00 | 0.00 | 90 | 1010.9 |
| 20260506131212 | 63 | 5 | 1.7 | 5.2 | 0.00 | 0.00 | 0.00 | 89 | 1010.9 |
| 20260506130149 | 64 | 24 | 1.7 | 4.3 | 0.00 | 0.00 | 0.00 | 89 | 1010.7 |
| 20260506125218 | 64 | 344 | 1.7 | 4.3 | 0.00 | 0.00 | 0.00 | 89 | 1010.5 |
| 20260506124125 | 65 | 5 | 1.7 | 5.2 | 0.00 | 0.00 | 0.00 | 89 | 1010.2 |
| 20260506123156 | 65 | 274 | 0.9 | 1.7 | 0.00 | 0.00 | 0.00 | 90 | 1010.0 |
| 20260506122125 | 65 | 355 | 0.9 | 2.6 | 0.00 | 0.00 | 0.00 | 88 | 1010.0 |
| 20260506121155 | 66 | 9 | 0.9 | 3.5 | 0.00 | 0.00 | 0.00 | 88 | 1009.9 |
| 20260506120203 | 67 | 355 | 0.9 | 2.6 | 0.00 | 0.00 | 0.00 | 86 | 1009.7 |
| 20260506115133 | 68 | 329 | 0.9 | 3.5 | 0.00 | 0.00 | 0.00 | 85 | 1009.5 |
| 20260506114207 | 69 | 82 | 0.9 | 3.5 | 0.00 | 0.00 | 0.00 | 82 | 1009.2 |
| 20260506113135 | 70 | 46 | 1.7 | 3.5 | 0.00 | 0.00 | 0.00 | 81 | 1009.1 |
| 20260506112214 | 71 | 26 | 0.9 | 4.3 | 0.00 | 0.00 | 0.00 | 82 | 1008.9 |
| 20260506111144 | 72 | 44 | 1.7 | 3.5 | 0.00 | 0.00 | 0.00 | 83 | 1008.7 |
| 20260506110855 | 72 | 285 | 0.9 | 3.5 | 0.00 | 0.00 | 0.00 | 84 | 1008.6 |
| 20260506110159 | 73 | 312 | 0.9 | 2.6 | 0.00 | 0.00 | 0.00 | 83 | 1008.5 |
| 20260506105218 | 73 | 313 | 0.0 | 2.6 | 0.00 | 0.00 | 0.00 | 82 | 1008.4 |
| 20260506104129 | 75 | 294 | 2.6 | 6.1 | 0.00 | 0.00 | 0.00 | 89 | 1008.3 |
| 20260506103213 | 76 | 233 | 1.7 | 6.1 | 0.00 | 0.00 | 0.00 | 91 | 1008.0 |
| 20260506102135 | 76 | 209 | 0.9 | 4.3 | 0.00 | 0.00 | 0.00 | 90 | 1007.9 |
| 20260506101205 | 76 | 190 | 0.9 | 5.2 | 0.00 | 0.00 | 0.00 | 90 | 1007.9 |
| 20260506100203 | 76 | 148 | 3.5 | 8.7 | 0.00 | 0.00 | 0.00 | 90 | 1007.9 |
| 20260506095130 | 76 | 225 | 3.5 | 8.7 | 0.00 | 0.00 | 0.00 | 90 | 1007.8 |
| 20260506094155 | 76 | 138 | 1.7 | 8.7 | 0.00 | 0.00 | 0.00 | 90 | 1007.7 |
| 20260506093233 | 76 | 201 | 5.2 | 8.7 | 0.00 | 0.00 | 0.00 | 90 | 1007.7 |
| 20260506092145 | 76 | 236 | 2.6 | 8.7 | 0.00 | 0.00 | 0.00 | 90 | 1007.7 |
| 20260506091125 | 76 | 154 | 3.5 | 8.7 | 0.00 | 0.00 | 0.00 | 90 | 1007.6 |
| 20260506090209 | 76 | 189 | 4.3 | 7.0 | 0.00 | 0.00 | 0.00 | 90 | 1007.7 |
| 20260506085137 | 76 | 194 | 2.6 | 7.8 | 0.00 | 0.00 | 0.00 | 90 | 1007.6 |
| 20260506084211 | 76 | 242 | 3.5 | 7.0 | 0.00 | 0.00 | 0.00 | 90 | 1007.5 |
| 20260506083144 | 76 | 186 | 4.3 | 7.8 | 0.00 | 0.00 | 0.00 | 90 | 1007.5 |
| 20260506082214 | 76 | 194 | 3.5 | 8.7 | 0.00 | 0.00 | 0.00 | 90 | 1007.5 |
| 20260506081150 | 76 | 147 | 4.3 | 8.7 | 0.00 | 0.00 | 0.00 | 90 | 1007.6 |
| 20260506080925 | 76 | 186 | 2.6 | 7.0 | 0.00 | 0.00 | 0.00 | 90 | 1007.6 |
| 20260506073223 | 76 | 190 | 2.6 | 5.2 | 0.00 | 0.00 | 0.00 | 89 | 1007.6 |
| 20260506072156 | 76 | 207 | 1.7 | 4.3 | 0.00 | 0.00 | 0.00 | 89 | 1007.8 |
| 20260506071221 | 76 | 161 | 1.7 | 5.2 | 0.00 | 0.00 | 0.00 | 88 | 1007.5 |
| 20260506070208 | 76 | 189 | 0.9 | 4.3 | 0.00 | 0.00 | 0.00 | 88 | 1007.7 |
| 20260506062149 | 77 | 210 | 1.7 | 7.8 | 0.00 | 0.00 | 0.00 | 87 | 1007.6 |
| 20260506061138 | 77 | 232 | 1.7 | 5.2 | 0.00 | 0.00 | 0.00 | 87 | 1007.6 |
| 20260506060127 | 77 | 203 | 2.6 | 8.7 | 0.00 | 0.00 | 0.00 | 87 | 1007.7 |
| 20260506051134 | 78 | 229 | 2.6 | 8.7 | 0.00 | 0.00 | 0.00 | 85 | 1007.6 |
| 20260506050900 | 78 | 234 | 2.6 | 8.7 | 0.00 | 0.00 | 0.00 | 85 | 1007.5 |
| 20260506050206 | 78 | 171 | 5.2 | 8.7 | 0.00 | 0.00 | 0.00 | 85 | 1007.3 |
| 20260506043149 | 78 | 187 | 2.6 | 7.0 | 0.00 | 0.00 | 0.00 | 84 | 1007.4 |
| 20260506042221 | 78 | 238 | 2.6 | 10.4 | 0.00 | 0.00 | 0.00 | 84 | 1007.3 |
| 20260506040128 | 78 | 161 | 3.5 | 6.1 | 0.00 | 0.00 | 0.00 | 84 | 1006.6 |
| 20260506035209 | 78 | 180 | 2.6 | 6.1 | 0.00 | 0.00 | 0.00 | 84 | 1006.6 |
| 20260506034214 | 78 | 186 | 3.5 | 7.0 | 0.00 | 0.00 | 0.00 | 84 | 1006.5 |
| 20260506033142 | 79 | 199 | 1.7 | 7.8 | 0.00 | 0.00 | 0.00 | 84 | 1006.3 |
| 20260506031148 | 79 | 155 | 1.7 | 7.0 | 0.00 | 0.00 | 0.00 | 83 | 1006.2 |
| 20260506030141 | 79 | 168 | 2.6 | 6.1 | 0.00 | 0.00 | 0.00 | 83 | 1006.1 |
| 20260506025213 | 79 | 204 | 2.6 | 5.2 | 0.00 | 0.00 | 0.00 | 83 | 1006.3 |
| 20260506024131 | 80 | 189 | 0.9 | 4.3 | 0.00 | 0.00 | 0.00 | 82 | 1005.9 |
| 20260506023210 | 80 | 144 | 1.7 | 4.3 | 0.00 | 0.00 | 0.00 | 82 | 1005.8 |
| 20260506022225 | 80 | 188 | 1.7 | 7.0 | 0.00 | 0.00 | 0.00 | 81 | 1005.9 |
| 20260506021146 | 80 | 167 | 0.9 | 5.2 | 0.00 | 0.00 | 0.00 | 81 | 1005.9 |
| 20260506020151 | 81 | 176 | 0.9 | 3.5 | 0.00 | 0.00 | 0.00 | 80 | 1005.9 |
| 20260506015230 | 81 | 176 | 0.9 | 3.5 | 0.00 | 0.00 | 0.00 | 80 | 1005.7 |
| 20260506014235 | 81 | 170 | 1.7 | 4.3 | 0.00 | 0.00 | 0.00 | 80 | 1005.6 |
| 20260506013147 | 81 | 180 | 0.9 | 3.5 | 0.00 | 0.00 | 0.00 | 79 | 1005.6 |
| 20260506012211 | 82 | 180 | 0.0 | 1.7 | 0.00 | 0.00 | 0.00 | 79 | 1005.4 |
| 20260506011155 | 82 | 180 | 1.7 | 3.5 | 0.00 | 0.00 | 0.00 | 78 | 1005.3 |
| 20260506010144 | 82 | 171 | 0.9 | 3.5 | 0.00 | 0.00 | 0.00 | 77 | 1005.2 |
| 20260506005217 | 82 | 152 | 0.9 | 6.1 | 0.00 | 0.00 | 0.00 | 77 | 1005.0 |
| 20260506004218 | 83 | 127 | 1.7 | 7.0 | 0.00 | 0.00 | 0.00 | 76 | 1004.7 |
| 20260506003153 | 83 | 241 | 2.6 | 7.0 | 0.00 | 0.00 | 0.00 | 76 | 1004.7 |
| 20260506002218 | 83 | 190 | 5.2 | 8.7 | 0.00 | 0.00 | 0.00 | 75 | 1004.7 |
| 20260506001152 | 84 | 210 | 2.6 | 7.0 | 0.00 | 0.00 | 0.00 | 74 | 1004.7 |
| 20260506000154 | 84 | 207 | 1.7 | 7.0 | 0.00 | 0.00 | 0.00 | 74 | 1004.7 |
| 20260505235128 | 84 | 84 | 3.5 | 10.4 | 0.00 | 0.00 | 0.00 | 73 | 1004.7 |
| 20260505234156 | 84 | 167 | 5.2 | 11.3 | 0.00 | 0.00 | 0.00 | 73 | 1004.6 |
| 20260505233216 | 84 | 155 | 6.1 | 10.4 | 0.00 | 0.00 | 0.00 | 73 | 1004.6 |
| 20260505231159 | 85 | 194 | 4.3 | 10.4 | 0.00 | 0.00 | 0.00 | 72 | 1004.6 |
| 20260505230906 | 85 | 137 | 4.3 | 16.5 | 0.00 | 0.00 | 0.00 | 71 | 1004.5 |
| 20260505230241 | 85 | 197 | 6.1 | 16.5 | 0.00 | 0.00 | 0.00 | 71 | 1004.3 |
| 20260505224159 | 85 | 207 | 3.5 | 8.7 | 0.00 | 0.00 | 0.00 | 71 | 1004.2 |
| 20260505223205 | 85 | 311 | 4.3 | 13.0 | 0.00 | 0.00 | 0.00 | 72 | 1004.2 |
| 20260505222124 | 85 | 213 | 5.2 | 11.3 | 0.00 | 0.00 | 0.00 | 71 | 1004.0 |
| 20260505221200 | 85 | 167 | 4.3 | 13.9 | 0.00 | 0.00 | 0.00 | 71 | 1004.1 |
| 20260505220149 | 85 | 136 | 4.3 | 11.3 | 0.00 | 0.00 | 0.00 | 70 | 1004.3 |
| 20260505215124 | 85 | 250 | 4.3 | 11.3 | 0.00 | 0.00 | 0.00 | 71 | 1004.6 |
| 20260505214156 | 85 | 196 | 7.8 | 14.8 | 0.00 | 0.00 | 0.00 | 71 | 1004.7 |
| 20260505213124 | 84 | 215 | 7.0 | 14.8 | 0.00 | 0.00 | 0.00 | 72 | 1004.8 |
| 20260505211147 | 84 | 240 | 7.0 | 13.9 | 0.00 | 0.00 | 0.00 | 73 | 1004.9 |
| 20260505210141 | 83 | 239 | 6.1 | 13.0 | 0.00 | 0.00 | 0.00 | 73 | 1005.0 |
| 20260505205219 | 83 | 226 | 6.1 | 12.2 | 0.00 | 0.00 | 0.00 | 74 | 1005.1 |
| 20260505204125 | 83 | 245 | 6.1 | 11.3 | 0.00 | 0.00 | 0.00 | 74 | 1005.2 |
| 20260505203204 | 83 | 182 | 4.3 | 13.9 | 0.00 | 0.00 | 0.00 | 74 | 1005.2 |
| 20260505202133 | 83 | 232 | 6.1 | 13.9 | 0.00 | 0.00 | 0.00 | 74 | 1005.4 |
| 20260505201210 | 82 | 215 | 7.8 | 12.2 | 0.00 | 0.00 | 0.00 | 74 | 1005.5 |
| 20260505200933 | 82 | 232 | 4.3 | 13.9 | 0.00 | 0.00 | 0.00 | 75 | 1005.4 |
| 20260505200141 | 82 | 243 | 6.1 | 14.8 | 0.00 | 0.00 | 0.00 | 75 | 1005.5 |
| 20260505195209 | 82 | 159 | 6.1 | 16.5 | 0.00 | 0.00 | 0.00 | 75 | 1005.7 |
| 20260505194141 | 82 | 180 | 4.3 | 14.8 | 0.00 | 0.00 | 0.00 | 76 | 1005.8 |
| 20260505193215 | 81 | 231 | 7.0 | 15.6 | 0.00 | 0.00 | 0.00 | 76 | 1005.9 |